Regional Weather Roundup
Issued by NWS

Current Version | Previous Version | Text Only | Print | Product List | Glossary On
Versions: 1 2 3 4 5 6 7 8 9 10 11 12 13 14 15 16 17 18 19 20 21 22 23 24 25 26 27 28 29 30 31 32 33 34 35 36 37 38 39 40 41 42 43 44 45 46 47 48 49 50
000
ASUS46 KSTO 070715
RWRCA

NORTHERN AND CENTRAL CA REGIONAL WEATHER ROUNDUP
NATIONAL WEATHER SERVICE SACRAMENTO CA
1100 PM PST MON FEB 06 2023

NOTE: FAIR INDICATES FEW OR NO CLOUDS BELOW 12,000 FEET WITH NO
SIGNIFICANT WEATHER AND/OR OBSTRUCTIONS TO VISIBILITY.

CAZ001-003-070800-
NORTHWEST AREA

CITY           SKY/WX    TMP DP  RH WIND       PRES   REMARKS
CRESCENT CITY  PTCLDY    41  39  93 CALM      30.47R
UKIAH          CLEAR     39  37  92 CALM      30.37S
$$

CAZ006-505>513-070800-
BAY AREA

CITY           SKY/WX    TMP DP  RH WIND       PRES   REMARKS
SANTA ROSA     CLEAR     44  41  89 N6        30.33S
SAN RAFAEL     N/A       48  MM  MM MISG
NAPA           CLEAR     43  38  82 SE3       30.33S
CONCORD        CLEAR     44  38  79 SE3       30.34R
OAKLAND CITY   N/A       48  MM  MM MISG
OAKLAND        PTCLDY    45  39  79 CALM      30.35R
SAN FRAN CITY  N/A       50  MM  73 MISG
SAN FRAN ARPT  CLEAR     48  41  76 SW3       30.34R
LIVERMORE      CLEAR     42  36  79 CALM      30.34R
HAYWARD        CLEAR     45  38  76 NE3       30.34R
REDWOOD CITY   N/A       42  MM  86 MISG
MOFFETT ARPT   CLEAR     45  37  76 CALM      30.34R
SAN JOSE ARPT  CLEAR     47  38  71 S3        30.34S
$$
CAZ034-037-514>518-070800-
CENTRAL COAST

CITY           SKY/WX    TMP DP  RH WIND       PRES   REMARKS
WATSONVILLE    CLEAR     41  37  86 N5        30.34S
SALINAS        CLEAR     44  40  85 CALM      30.34S
MONTEREY       CLEAR     46  40  79 SE8       30.33F
SAN LUIS OBISP CLEAR     47  36  65 NW3       30.31R
SANTA MARIA    CLEAR     49  36  61 NW10      30.29R
HALF MOON BAY  FAIR      39  37  93 CALM      30.35R
$$
CAZ015-016-070800-
NORTHERN SACRAMENTO VALLEY

CITY           SKY/WX    TMP DP  RH WIND       PRES   REMARKS
REDDING        CLEAR     46  34  62 NW5       30.35F
RED BLUFF      CLEAR     46  35  65 N6        30.37S
OROVILLE       CLEAR     47  36  65 CALM      30.35S
$$
CAZ016>018-070800-
SOUTHERN SACRAMENTO VALLEY

CITY           SKY/WX    TMP DP  RH WIND       PRES   REMARKS
AUBURN         CLEAR     48  25  40 NE3       30.30S
BEALE AFB      CLEAR     43  38  82 N9        30.31S
LINCOLN        FAIR      45  36  70 NW7       30.31S
MARYSVILLE     CLEAR     48  37  65 N7        30.33S
SAC INTL ARPT  CLEAR     48  38  68 NW9       30.32R
MATHER AIRPORT NOT AVBL
DOWNTOWN SAC   N/A       46  MM  MM MISG
SAC EXEC ARPT  CLEAR     47  37  68 CALM      30.32R
VACAVILLE      CLEAR     57  33  40 N10       30.33R
TRAVIS AFB     CLEAR     44  37  75 W7        30.31R
$$
CAZ019>021-070800-
SAN JOAQUIN VALLEY

CITY           SKY/WX    TMP DP  RH WIND       PRES   REMARKS
STOCKTON       CLEAR     43  39  86 SE8       30.32S
MODESTO        CLEAR     40  39  97 E6        30.34R
MERCED         CLEAR     39  37  92 SE5       30.34F FOG
LEMOORE        CLEAR     38  35  89 NW5       30.37R WCI  34
FRESNO         CLEAR     43  41  93 CALM      30.36S
HANFORD        CLEAR     38  36  92 CALM      30.38R FOG
PORTERVILLE    CLEAR     39  37  92 CALM      30.38R
BAKERSFIELD    CLEAR     45  37  73 E5        30.34S
$$
CAZ011-012-071-070800-
NORTHERN MOUNTAINS

CITY           SKY/WX    TMP DP  RH WIND       PRES   REMARKS
YREKA          CLEAR     28  23  81 NE3       30.43S
MOUNT SHASTA   CLEAR     29  23  78 CALM      30.40F
ALTURAS        CLEAR     24  22  91 CALM      30.42S FOG
$$
CAZ011-012-071-070800-
SIERRA NEVADA MTNS

CITY           SKY/WX    TMP DP  RH WIND       PRES   REMARKS
BLUE CANYON    CLEAR     36  22  56 VRB6      30.32S WCI  31
TRUCKEE        FOG       16  12  86 CALM      30.41S VSB 3/4
MAMMOTH LAKES  FAIR      18   6  61 CALM      30.39S
$$



USA.gov is the U.S. government's official web portal to all federal, state and local government web resources and services.